Weather History for Ruston, LA

Change the Weather History Date:

Tuesday, October 1, 2013

  Actual Average Record
Temperature  
Mean Temperature 78 °F -  
Max Temperature 87 °F 83 °F 100 °F (1938)
Min Temperature 69 °F 56 °F 38 °F (1984)
Cooling Degree Days 14    
Growing Degree Days 28 (Base 50)    
Moisture  
Dew Point 71 °F    
Average Humidity 89    
Maximum Humidity 100    
Minimum Humidity 51    
Precipitation  
Precipitation 0.00 in - - ()
Sea Level Pressure  
Sea Level Pressure 30.01 in    
Wind  
Wind Speed 4 mph (SSE)    
Max Wind Speed 9 mph    
Max Gust Speed 16 mph    
Visibility 7 miles    
Events Fog , Thunderstorm    
Averages and records for this station are not official NWS values.
T = Trace of Precipitation, MM = Missing Value Source: NWS Daily Summary

Daily Weather History Graph

Daily Weather History Graph

Search for Another Location

Airport:

Trip Planner

Search our weather history database for the weather conditions in past years. The results will help you decide how hot, cold, wet, or windy it might be!

Date:

Astronomy

Oct. 01, 2013 Rise Set
Actual Time 7:04 AM CDT 6:54 PM CDT
Civil Twilight 6:40 AM CDT 7:19 PM CDT
Nautical Twilight 6:11 AM CDT 7:47 PM CDT
Astronomical Twilight 5:42 AM CDT 8:16 PM CDT
Moon 3:49 AM CDT (10/1) 4:50 PM CDT (10/1)
Length of Visible Light 12h 39m
Length of Day
11h 50m
Waning Crescent, 12% of the Moon is Illuminated
Oct 1
Waning Crescent
Oct 4
New
Oct 11
First Quarter
Oct 18
Full
Oct 26
Last Quarter

Hourly Weather History & Observations

Time (CDT) Temp. Heat Index Dew Point Humidity Pressure Visibility Wind Dir Wind Speed Gust Speed Precip Events Conditions
12:15 AM 70.9 °F - 70.9 °F 100% 29.96 in 10.0 mi SSE 3.5 mph - N/A   Clear
12:35 AM 70.7 °F - 70.7 °F 100% 29.95 in 10.0 mi SSE 4.6 mph - N/A   Clear
12:55 AM 70.7 °F - 70.7 °F 100% 29.96 in 10.0 mi SSE 3.5 mph - N/A   Clear
1:15 AM 70.7 °F - 70.7 °F 100% 29.96 in 10.0 mi Calm Calm - N/A   Clear
1:35 AM 70.3 °F - 70.3 °F 100% 29.96 in 10.0 mi Calm Calm - N/A   Scattered Clouds
1:55 AM 70.3 °F - 70.3 °F 100% 29.97 in 10.0 mi Calm Calm - N/A   Mostly Cloudy
2:15 AM 70.7 °F - 70.7 °F 100% 29.97 in 7.0 mi SSE 4.6 mph - N/A   Overcast
2:35 AM 70.7 °F - 70.7 °F 100% 29.97 in 4.0 mi South 5.8 mph - N/A   Overcast
2:55 AM 70.9 °F - 70.9 °F 100% 29.96 in 4.0 mi SSE 4.6 mph - N/A   Overcast
3:15 AM 70.9 °F - 70.9 °F 100% 29.97 in 3.0 mi South 3.5 mph - N/A   Overcast
3:35 AM 71.1 °F - 71.1 °F 100% 29.97 in 4.0 mi SSE 3.5 mph - N/A   Overcast
3:55 AM 71.2 °F - 71.2 °F 100% 29.97 in 4.0 mi SSE 4.6 mph - N/A   Overcast
4:15 AM 71.2 °F - 71.2 °F 100% 29.97 in 5.0 mi SSE 5.8 mph - N/A   Overcast
4:35 AM 71.6 °F - 71.6 °F 100% 29.98 in 5.0 mi SSE 4.6 mph - N/A   Overcast
4:55 AM 71.6 °F - 71.6 °F 100% 29.98 in 5.0 mi SSE 3.5 mph - N/A   Overcast
5:15 AM 71.6 °F - 71.6 °F 100% 29.99 in 4.0 mi SSE 3.5 mph - N/A   Overcast
5:35 AM 71.8 °F - 71.8 °F 100% 29.99 in 3.0 mi South 4.6 mph - N/A   Overcast
5:55 AM 71.8 °F - 71.8 °F 100% 30.00 in 3.0 mi South 4.6 mph - N/A   Overcast
6:15 AM 71.8 °F - 71.8 °F 100% 30.00 in 4.0 mi South 4.6 mph - N/A   Overcast
6:35 AM 72.0 °F - 72.0 °F 100% 30.01 in 2.5 mi South 4.6 mph - N/A   Overcast
6:55 AM 72.0 °F - 72.0 °F 100% 30.02 in 3.0 mi SSE 3.5 mph - N/A   Overcast
7:15 AM 72.0 °F - 72.0 °F 100% 30.02 in 1.8 mi Calm Calm - N/A   Overcast
7:35 AM 72.0 °F - 72.0 °F 100% 30.03 in 0.5 mi SE 3.5 mph - N/A Fog Fog
7:55 AM 72.0 °F - 72.0 °F 100% 30.04 in 0.5 mi SSE 3.5 mph - N/A Fog Fog
8:15 AM 72.0 °F - 72.0 °F 100% 30.04 in 0.8 mi SE 4.6 mph - N/A   Overcast
8:35 AM 72.3 °F - 72.3 °F 100% 30.05 in 0.8 mi Calm Calm - N/A   Overcast
8:55 AM 72.5 °F - 72.5 °F 100% 30.05 in 1.0 mi SSE 3.5 mph - N/A   Overcast
9:15 AM 72.5 °F - 72.5 °F 100% 30.06 in 1.2 mi SE 4.6 mph - N/A   Overcast
9:35 AM 72.7 °F - 72.7 °F 100% 30.06 in 1.2 mi SE 4.6 mph - N/A   Overcast
9:55 AM 72.7 °F - 72.7 °F 100% 30.06 in 1.2 mi SE 3.5 mph - N/A   Overcast
10:15 AM 73.2 °F - 73.2 °F 100% 30.05 in 1.5 mi Calm Calm - N/A   Overcast
10:35 AM 73.6 °F - 73.6 °F 100% 30.06 in 4.0 mi SSE 4.6 mph - N/A   Overcast
10:55 AM 74.3 °F - 74.3 °F 100% 30.06 in 10.0 mi South 5.8 mph - N/A   Overcast
11:15 AM 74.7 °F - 74.7 °F 100% 30.06 in 7.0 mi SSE 5.8 mph - N/A   Overcast
11:35 AM 75.6 °F - 74.8 °F 98% 30.06 in 7.0 mi SSE 3.5 mph - N/A   Overcast
11:55 AM 77.5 °F - 73.9 °F 89% 30.06 in 7.0 mi SSE 4.6 mph - N/A   Overcast
12:15 PM 80.6 °F 85.0 °F 72.7 °F 77% 30.05 in 10.0 mi ESE 6.9 mph - N/A   Mostly Cloudy
12:35 PM 81.1 °F 85.6 °F 72.3 °F 74% 30.04 in 10.0 mi South 6.9 mph - N/A   Mostly Cloudy
12:55 PM 83.5 °F 88.2 °F 71.1 °F 66% 30.04 in 10.0 mi South 8.1 mph - N/A   Scattered Clouds
1:15 PM 84.4 °F 89.4 °F 71.1 °F 64% 30.03 in 10.0 mi SE 8.1 mph - N/A   Scattered Clouds
1:35 PM 84.9 °F 89.4 °F 70.0 °F 61% 30.02 in 10.0 mi South 4.6 mph - N/A   Scattered Clouds
1:55 PM 86.0 °F 89.4 °F 68.0 °F 55% 30.01 in 10.0 mi SSW 9.2 mph - N/A   Scattered Clouds
2:15 PM 86.4 °F 90.4 °F 69.1 °F 56% 30.00 in 10.0 mi SE 5.8 mph - N/A   Scattered Clouds
2:35 PM 85.6 °F 89.4 °F 68.9 °F 57% 29.99 in 10.0 mi ESE 6.9 mph - N/A   Mostly Cloudy
2:55 PM 86.4 °F 89.7 °F 67.8 °F 54% 29.99 in 10.0 mi SSE 6.9 mph - N/A   Scattered Clouds
3:15 PM 87.6 °F 91.1 °F 68.2 °F 52% 29.99 in 10.0 mi SE 6.9 mph - N/A   Scattered Clouds
3:35 PM 87.3 °F 90.2 °F 67.3 °F 51% 29.99 in 10.0 mi South 9.2 mph - N/A   Scattered Clouds
3:55 PM 83.5 °F 86.7 °F 68.4 °F 60% 29.99 in 10.0 mi SE 9.2 mph 16.1 mph N/A   Mostly Cloudy
4:15 PM 80.6 °F 82.9 °F 66.9 °F 63% 29.99 in 10.0 mi SSE 6.9 mph - N/A Thunderstorm Mostly Cloudy
4:35 PM 79.7 °F - 68.4 °F 68% 29.99 in 10.0 mi South 5.8 mph - N/A Thunderstorm Thunderstorm
4:55 PM 78.8 °F - 70.0 °F 74% 29.99 in 10.0 mi Calm Calm - N/A   Clear
5:15 PM 77.9 °F - 71.4 °F 80% 29.99 in 10.0 mi Calm Calm - N/A Thunderstorm Clear
5:35 PM 77.9 °F - 71.2 °F 80% 29.98 in 10.0 mi SE 4.6 mph - N/A Thunderstorm Clear
5:55 PM 77.9 °F - 70.7 °F 78% 30.00 in 10.0 mi SSE 4.6 mph - N/A   Scattered Clouds
6:15 PM 77.9 °F - 71.6 °F 81% 30.01 in 10.0 mi South 3.5 mph - N/A   Mostly Cloudy
6:35 PM 77.5 °F - 72.3 °F 84% 30.00 in 10.0 mi Calm Calm - N/A   Overcast
6:55 PM 76.3 °F - 72.7 °F 89% 30.01 in 10.0 mi SW 3.5 mph - N/A Thunderstorm Scattered Clouds
7:15 PM 76.1 °F - 73.0 °F 90% 30.02 in 10.0 mi South 9.2 mph - N/A Thunderstorm Scattered Clouds
7:35 PM 75.7 °F - 72.7 °F 90% 30.03 in 10.0 mi South 6.9 mph - N/A   Scattered Clouds
7:55 PM 75.7 °F - 71.8 °F 87% 30.03 in 10.0 mi Calm Calm - N/A   Scattered Clouds
8:15 PM 74.8 °F - 72.0 °F 91% 30.03 in 10.0 mi SSE 3.5 mph - N/A   Clear
8:35 PM 74.3 °F - 71.6 °F 91% 30.04 in 10.0 mi SSE 3.5 mph - N/A   Clear
8:55 PM 74.1 °F - 71.2 °F 91% 30.04 in 10.0 mi Calm Calm - N/A   Clear
9:15 PM 72.9 °F - 72.7 °F 99% 30.04 in 10.0 mi SE 3.5 mph - N/A   Clear
9:35 PM 73.4 °F - 71.1 °F 92% 30.04 in 10.0 mi Calm Calm - N/A   Clear
9:55 PM 72.7 °F - 70.7 °F 93% 30.04 in 10.0 mi SE 4.6 mph - N/A   Clear
10:15 PM 72.7 °F - 69.8 °F 91% 30.04 in 10.0 mi SSE 4.6 mph - N/A   Clear
10:35 PM 72.3 °F - 69.4 °F 91% 30.04 in 10.0 mi Calm Calm - N/A   Clear
10:55 PM 71.6 °F - 69.8 °F 94% 30.04 in 10.0 mi Calm Calm - N/A   Clear
11:15 PM 70.9 °F - 70.9 °F 100% 30.05 in 10.0 mi Calm Calm - N/A   Clear
11:35 PM 70.3 °F - 70.3 °F 100% 30.05 in 10.0 mi Calm Calm - N/A   Clear
11:55 PM 69.6 °F - 69.6 °F 100% 30.05 in 5.0 mi Calm Calm - N/A   Clear